Dutch Harbor, AK

10:01 PM AKDT on April 23, 2017 (GMT -0800)
Unalaska

Weather History for PADU - April, 2013

Change the Weather History Date:

Sunday, April 28, 2013

  Actual Average Record
Temperature  
Mean Temperature 33 °F -  
Max Temperature 35 °F 41 °F 48 °F (1983)
Min Temperature 32 °F 33 °F 26 °F (1951)
Degree Days  
Heating Degree Days 32    
Moisture  
Dew Point 26 °F    
Average Humidity 75    
Maximum Humidity 79    
Minimum Humidity 72    
Precipitation  
Precipitation 0.00 in - - ()
Sea Level Pressure  
Sea Level Pressure 30.50 in    
Wind  
Wind Speed 9 mph (North)    
Max Wind Speed 13 mph    
Max Gust Speed 22 mph    
Visibility 10 miles    
Events      
Averages and records for this station are not official NWS values.
T = Trace of Precipitation, MM = Missing Value Source: NWS Daily Summary

Daily Weather History Graph

Daily Weather History Graph

Search for Another Location

Airport or City:

Trip Planner

Search our weather history database for the weather conditions in past years. The results will help you decide how hot, cold, wet, or windy it might be!

Date:

Astronomy

Apr. 28, 2013 Rise Set
Actual Time 7:35 AM AKDT 10:33 PM AKDT
Civil Twilight 6:54 AM AKDT 11:13 PM AKDT
Nautical Twilight 6:01 AM AKDT 12:07 AM AKDT
Astronomical Twilight 4:51 AM AKDT 1:19 AM AKDT
Moon 1:31 AM AKDT (4/28) 9:47 AM AKDT (4/28)
Length of Visible Light 16h 19m
Length of Day
14h 57m
Waning Gibbous, 87% of the Moon is Illuminated
Apr 28
Waning Gibbous
May 2
Last Quarter
May 9
New
May 17
First Quarter
May 24
Full

Hourly Weather History & Observations

Time (AKDT) Temp. Windchill Dew Point Humidity Pressure Visibility Wind Dir Wind Speed Gust Speed Precip Events Conditions
12:56 AM 33.1 °F 23.9 °F 25.0 °F 72% 30.54 in 10.0 mi NNW 12.7 mph - N/A   Overcast
1:56 AM 33.1 °F 24.4 °F 25.0 °F 72% 30.54 in 10.0 mi North 11.5 mph - N/A   Overcast
2:56 AM 33.1 °F 23.9 °F 26.1 °F 75% 30.53 in 10.0 mi North 12.7 mph 16.1 mph N/A   Overcast
3:56 AM 33.1 °F 27.7 °F 26.1 °F 75% 30.54 in 10.0 mi Variable 5.8 mph - N/A   Overcast
4:56 AM 33.1 °F 26.9 °F 25.0 °F 72% 30.53 in 10.0 mi ENE 6.9 mph - N/A   Overcast
5:56 AM 33.1 °F 26.1 °F 26.1 °F 75% 30.53 in 10.0 mi NNW 8.1 mph - N/A   Overcast
6:56 AM 33.1 °F 25.5 °F 26.1 °F 75% 30.53 in 10.0 mi NNE 9.2 mph - N/A   Overcast
7:56 AM 33.1 °F - 25.0 °F 72% 30.52 in 10.0 mi Calm Calm - N/A   Overcast
8:56 AM 33.1 °F 26.9 °F 25.0 °F 72% 30.52 in 10.0 mi Variable 6.9 mph - N/A   Overcast
9:56 AM 32.0 °F 23.6 °F 26.1 °F 79% 30.52 in 10.0 mi NNW 10.4 mph 21.9 mph N/A   Overcast
10:56 AM 33.1 °F 26.9 °F 26.1 °F 75% 30.52 in 10.0 mi NNW 6.9 mph 16.1 mph N/A   Overcast
11:56 AM 33.1 °F 25.5 °F 27.0 °F 78% 30.51 in 10.0 mi NW 9.2 mph - N/A   Overcast
12:56 PM 34.0 °F 27.2 °F 27.0 °F 75% 30.52 in 10.0 mi North 8.1 mph - N/A   Overcast
1:56 PM 34.0 °F 26.0 °F 28.0 °F 79% 30.51 in 10.0 mi North 10.4 mph - N/A   Overcast
2:56 PM 34.0 °F 28.0 °F 27.0 °F 75% 30.51 in 10.0 mi Variable 6.9 mph - N/A   Overcast
4:56 PM 34.0 °F 25.5 °F 27.0 °F 75% 30.48 in 10.0 mi North 11.5 mph - N/A   Overcast
5:56 PM 34.0 °F 27.2 °F 27.0 °F 75% 30.45 in 10.0 mi North 8.1 mph 16.1 mph N/A   Overcast
6:56 PM 34.0 °F 27.2 °F 27.0 °F 75% 30.44 in 10.0 mi North 8.1 mph - N/A   Overcast
7:56 PM 34.0 °F 28.0 °F 27.0 °F 75% 30.44 in 10.0 mi NNW 6.9 mph 17.3 mph N/A   Overcast
8:56 PM 34.0 °F 25.5 °F 27.0 °F 75% 30.43 in 10.0 mi North 11.5 mph 17.3 mph N/A   Overcast
9:56 PM 33.1 °F 28.7 °F 27.0 °F 78% 30.44 in 10.0 mi Variable 4.6 mph - N/A   Overcast
10:56 PM 33.1 °F 26.1 °F 27.0 °F 78% 30.44 in 10.0 mi ENE 8.1 mph - N/A   Overcast
11:56 PM 33.1 °F 26.9 °F 27.0 °F 78% 30.43 in 10.0 mi North 6.9 mph - N/A   Overcast